When you browse on this site, cookies collect data to enhance your experience and personalize the content and advertising you see.
Visit our Privacy Policy to learn more. By continuing to use the site, you agree to this use of cookies and data.
  • In United Kingdom
  • List of Countries
  • For 7 days
  • Water Temperature
  • Weather Map
  • Weather Widgets
  • user-avatar
    Login

    Hourly Weather Laksau

    Today, 18 August, Sunday

    Time Temperature Precipitation Wind Pressure Humidity
    00:00 +23°C° 0.2 mm 1 mps 699 mmHg 98%
    01:00 +23°C° 0 mm 1 mps 699 mmHg 98%
    02:00 +23°C° 0.2 mm 1 mps 699 mmHg 98%
    03:00 +23°C° 0.2 mm 1 mps 698 mmHg 98%
    04:00 +23°C° 0.2 mm 1 mps 698 mmHg 98%
    05:00 +23°C° 0 mm 1 mps 698 mmHg 98%
    06:00 +24°C° 0 mm 1 mps 699 mmHg 98%
    07:00 +24°C° 0 mm 2 mps 700 mmHg 98%
    08:00 +24°C° 0.1 mm 2 mps 700 mmHg 95%
    09:00 +25°C° 0.1 mm 2 mps 700 mmHg 92%
    10:00 +26°C° 0.1 mm 2 mps 700 mmHg 89%
    11:00 +27°C° 0.1 mm 2 mps 700 mmHg 82%
    12:00 +28°C° 0.1 mm 2 mps 699 mmHg 74%
    13:00 +30°C° 0.1 mm 2 mps 699 mmHg 67%
    14:00 +30°C° 0.2 mm 2 mps 698 mmHg 69%
    15:00 +29°C° 0.2 mm 3 mps 698 mmHg 70%
    16:00 +29°C° 0.2 mm 3 mps 697 mmHg 72%
    17:00 +28°C° 0.1 mm 2 mps 697 mmHg 80%
    18:00 +26°C° 0.1 mm 2 mps 697 mmHg 88%
    19:00 +24°C° 0.1 mm 1 mps 697 mmHg 95%
    20:00 +24°C° 0 mm 1 mps 698 mmHg 96%
    21:00 +24°C° 0 mm 1 mps 698 mmHg 96%
    22:00 +24°C° 0 mm 1 mps 698 mmHg 96%
    23:00 +24°C° 0 mm 1 mps 698 mmHg 95%

    Tomorrow, 19 August, Monday

    Time Temperature Precipitation Wind Pressure Humidity
    00:00 +24°C° 0 mm 1 mps 698 mmHg 95%
    01:00 +24°C° 0 mm 1 mps 698 mmHg 94%
    02:00 +24°C° 0 mm 1 mps 698 mmHg 94%
    03:00 +24°C° 0 mm 1 mps 697 mmHg 94%
    04:00 +24°C° 0 mm 1 mps 697 mmHg 94%
    05:00 +24°C° 0 mm 1 mps 697 mmHg 94%
    06:00 +24°C° 0 mm 1 mps 698 mmHg 94%
    07:00 +24°C° 0 mm 1 mps 698 mmHg 94%
    08:00 +25°C° 0 mm 1 mps 698 mmHg 89%
    09:00 +26°C° 0 mm 2 mps 699 mmHg 84%
    10:00 +27°C° 0 mm 2 mps 699 mmHg 78%
    11:00 +28°C° 0 mm 2 mps 699 mmHg 75%
    12:00 +29°C° 0 mm 2 mps 698 mmHg 72%
    13:00 +29°C° 0 mm 2 mps 698 mmHg 69%
    14:00 +29°C° 0 mm 2 mps 697 mmHg 70%
    15:00 +29°C° 0 mm 2 mps 697 mmHg 71%
    16:00 +29°C° 0 mm 1 mps 696 mmHg 72%
    17:00 +28°C° 0 mm 1 mps 696 mmHg 80%
    18:00 +26°C° 0 mm 1 mps 696 mmHg 87%
    19:00 +25°C° 0 mm 1 mps 696 mmHg 95%
    20:00 +25°C° 0 mm 1 mps 697 mmHg 96%
    21:00 +24°C° 0 mm 1 mps 697 mmHg 97%
    22:00 +24°C° 0 mm 1 mps 698 mmHg 98%
    23:00 +24°C° 0.1 mm 1 mps 698 mmHg 98%

    Day after tomorrow, 20 August, Tuesday

    Time Temperature Precipitation Wind Pressure Humidity
    00:00 +24°C° 0.1 mm 1 mps 697 mmHg 98%
    01:00 +24°C° 0.1 mm 1 mps 697 mmHg 98%
    02:00 +24°C° 0.1 mm 1 mps 697 mmHg 98%
    03:00 +24°C° 0.1 mm 1 mps 696 mmHg 98%
    04:00 +24°C° 0.1 mm 1 mps 696 mmHg 98%
    05:00 +24°C° 0 mm 1 mps 696 mmHg 98%
    06:00 +24°C° 0 mm 1 mps 697 mmHg 97%
    07:00 +25°C° 0 mm 1 mps 697 mmHg 97%
    08:00 +25°C° 0.5 mm 1 mps 697 mmHg 96%
    09:00 +25°C° 0.5 mm 1 mps 698 mmHg 94%
    10:00 +26°C° 0.5 mm 1 mps 698 mmHg 93%
    11:00 +26°C° 1 mm 1 mps 698 mmHg 93%
    12:00 +26°C° 1 mm 1 mps 697 mmHg 93%
    13:00 +26°C° 1 mm 1 mps 697 mmHg 93%
    14:00 +26°C° 0.5 mm 1 mps 697 mmHg 90%
    15:00 +27°C° 0.5 mm 1 mps 696 mmHg 88%
    16:00 +27°C° 0.5 mm 1 mps 696 mmHg 85%
    17:00 +26°C° 0.1 mm 1 mps 696 mmHg 89%
    18:00 +25°C° 0.1 mm 1 mps 696 mmHg 93%
    19:00 +22°C° 0.1 mm 0 mps 696 mmHg 97%
    20:00 +22°C° 0.1 mm 0 mps 697 mmHg 97%
    21:00 +22°C° 0.1 mm 0 mps 697 mmHg 98%
    22:00 +21°C° 0.1 mm 0 mps 697 mmHg 98%
    23:00 +21°C° 0 mm 0 mps 697 mmHg 98%

    21 August, Wednesday

    Time Temperature Precipitation Wind Pressure Humidity
    00:00 +21°C° 0 mm 0 mps 697 mmHg 98%
    01:00 +21°C° 0 mm 0 mps 697 mmHg 98%
    02:00 +21°C° 0 mm 0 mps 696 mmHg 98%
    03:00 +23°C° 0 mm 1 mps 696 mmHg 98%
    04:00 +23°C° 0 mm 1 mps 696 mmHg 98%
    05:00 +23°C° 0.2 mm 1 mps 696 mmHg 98%
    06:00 +24°C° 0.2 mm 1 mps 697 mmHg 98%
    07:00 +24°C° 0.2 mm 1 mps 697 mmHg 98%
    08:00 +25°C° 0.2 mm 1 mps 698 mmHg 94%
    09:00 +26°C° 0.2 mm 1 mps 698 mmHg 90%
    10:00 +27°C° 0.2 mm 1 mps 698 mmHg 86%
    11:00 +27°C° 1.4 mm 1 mps 698 mmHg 85%
    12:00 +28°C° 1.4 mm 1 mps 698 mmHg 85%
    13:00 +28°C° 1.4 mm 1 mps 697 mmHg 85%
    14:00 +27°C° 1.5 mm 1 mps 697 mmHg 89%
    15:00 +26°C° 1.5 mm 1 mps 696 mmHg 92%
    16:00 +25°C° 1.5 mm 1 mps 696 mmHg 96%
    17:00 +25°C° 0.2 mm 1 mps 696 mmHg 97%
    18:00 +22°C° 0.2 mm 0 mps 697 mmHg 98%
    19:00 +22°C° 0.2 mm 0 mps 697 mmHg 98%
    20:00 +22°C° 0 mm 0 mps 697 mmHg 98%
    21:00 +22°C° 0 mm 0 mps 698 mmHg 98%
    22:00 +21°C° 0 mm 0 mps 699 mmHg 98%
    23:00 +21°C° 0.1 mm 0 mps 698 mmHg 98%

    22 August, Thursday

    Time Temperature Precipitation Wind Pressure Humidity
    00:00 +21°C° 0.1 mm 0 mps 698 mmHg 98%
    01:00 +21°C° 0.1 mm 0 mps 698 mmHg 98%
    02:00 +23°C° 0.1 mm 1 mps 697 mmHg 98%
    03:00 +23°C° 0.1 mm 1 mps 697 mmHg 98%
    04:00 +23°C° 0.1 mm 1 mps 697 mmHg 98%
    05:00 +23°C° 0.3 mm 1 mps 698 mmHg 98%
    06:00 +23°C° 0.3 mm 1 mps 698 mmHg 98%
    07:00 +23°C° 0.3 mm 1 mps 699 mmHg 98%
    08:00 +24°C° 0.2 mm 1 mps 699 mmHg 98%
    09:00 +24°C° 0.2 mm 1 mps 699 mmHg 97%
    10:00 +24°C° 0.2 mm 1 mps 699 mmHg 97%
    11:00 +25°C° 0.3 mm 1 mps 699 mmHg 93%
    12:00 +26°C° 0.3 mm 1 mps 699 mmHg 88%
    13:00 +27°C° 0.3 mm 1 mps 698 mmHg 84%
    14:00 +27°C° 0.3 mm 1 mps 698 mmHg 86%
    15:00 +26°C° 0.3 mm 1 mps 698 mmHg 88%
    16:00 +26°C° 0.3 mm 1 mps 697 mmHg 91%
    17:00 +25°C° 0.1 mm 1 mps 698 mmHg 93%
    18:00 +24°C° 0.1 mm 1 mps 698 mmHg 96%
    19:00 +24°C° 0.1 mm 1 mps 698 mmHg 98%
    20:00 +22°C° 0.1 mm 0 mps 699 mmHg 98%
    21:00 +22°C° 0.1 mm 0 mps 700 mmHg 98%
    22:00 +21°C° 0.1 mm 0 mps 700 mmHg 98%
    23:00 +21°C° 0 mm 0 mps 700 mmHg 98%

    23 August, Friday

    Time Temperature Precipitation Wind Pressure Humidity
    00:00 +21°C° 0 mm 0 mps 700 mmHg 98%
    01:00 +23°C° 0 mm 1 mps 699 mmHg 98%
    02:00 +23°C° 0 mm 1 mps 699 mmHg 98%
    03:00 +23°C° 0 mm 1 mps 699 mmHg 98%
    04:00 +23°C° 0 mm 1 mps 699 mmHg 98%
    05:00 +23°C° 0 mm 1 mps 699 mmHg 98%
    06:00 +23°C° 0 mm 1 mps 700 mmHg 98%
    07:00 +23°C° 0 mm 1 mps 700 mmHg 98%
    08:00 +24°C° 0.1 mm 1 mps 700 mmHg 95%
    09:00 +25°C° 0.1 mm 1 mps 700 mmHg 92%
    10:00 +26°C° 0.1 mm 1 mps 701 mmHg 89%
    11:00 +27°C° 0.2 mm 1 mps 700 mmHg 82%
    12:00 +29°C° 0.2 mm 1 mps 700 mmHg 75%
    13:00 +30°C° 0.2 mm 2 mps 700 mmHg 69%
    14:00 +30°C° 0.3 mm 2 mps 699 mmHg 71%
    15:00 +29°C° 0.3 mm 2 mps 698 mmHg 73%
    16:00 +29°C° 0.3 mm 2 mps 698 mmHg 76%
    17:00 +27°C° 0.2 mm 1 mps 698 mmHg 82%
    18:00 +26°C° 0.2 mm 1 mps 698 mmHg 88%
    19:00 +25°C° 0.2 mm 1 mps 698 mmHg 94%
    20:00 +25°C° 0.3 mm 1 mps 699 mmHg 95%
    21:00 +23°C° 0.3 mm 0 mps 699 mmHg 96%
    22:00 +22°C° 0.3 mm 0 mps 700 mmHg 97%
    23:00 +22°C° 0.7 mm 0 mps 699 mmHg 97%
    Show more